Location: Caltech
(34.1382°N, 118.1253°W)
Time: 12:01:41
(UTC-07:00)

Iridium 68 - Visible Passes

Search period start: 04 July 2015 00:00
Search period end: 14 July 2015 00:00
Orbit: 776 x 779 km, 86.4° (Epoch: 04 July)

Date Brightness Start Highest point End Pass type
(mag) Time Alt. Az. Time Alt. Az. Time Alt. Az.
04 Jul 6.5 04:23:31 10° N 04:28:41 64° E 04:33:51 10° SSE visible
05 Jul 7.7 03:50:25 10° NNE 03:55:02 32° E 03:59:43 10° SE visible
06 Jul 8.6 03:17:58 10° NE 03:21:13 17° ENE 03:24:41 10° ESE visible
06 Jul 6.4 04:57:18 10° NNW 05:02:15 44° W 05:07:08 10° SSW visible
07 Jul 6.0 04:23:34 10° N 04:28:48 86° W 04:34:01 10° S visible
08 Jul 6.9 03:50:13 10° N 03:55:14 48° E 04:00:17 10° SSE visible
09 Jul 8.0 03:17:19 10° NNE 03:21:32 25° E 03:25:51 10° SE visible
09 Jul 6.9 04:57:46 10° NNW 05:02:17 29° W 05:06:41 10° SW visible
10 Jul 8.6 02:45:26 10° NE 02:47:39 13° ENE 02:50:10 10° ESE visible
10 Jul 6.1 04:23:45 10° N 04:28:53 57° W 04:33:12 14° SSW visible
11 Jul 6.2 03:50:10 10° N 03:55:23 73° E 03:59:12 19° S visible
12 Jul 7.3 03:16:59 10° NNE 03:21:46 37° E 03:25:14 17° SE visible
12 Jul 7.4 04:58:29 10° NW 05:02:17 20° W 05:05:40 11° SW visible
13 Jul 8.2 02:44:21 10° NNE 02:48:00 20° ENE 02:51:18 12° ESE visible
13 Jul 6.6 04:24:06 10° NNW 04:28:55 38° W 04:31:44 21° SW visible
